Location: ???
(60.6398°N, 46.9067°E)
Time: 18:42:10
(UTC+00:00)

Cosmos 1328 Rocket - Pass Details

Date: 08 December 2019
Orbit: 602 x 626 km, 82.5° (Epoch: 16 January)

Event Time Altitude Azimuth Distance (km) Brightness Sun altitude
Rises 12:48:23 0° 191° (S) 2,866 7.8 -6.8°
Reaches altitude 10° 12:50:35 10° 191° (S) 1,963 6.9 -7.0°
Maximum altitude 12:54:56 86° 106° (ESE) 617 3.5 -7.4°
Drops below altitude 10° 12:59:18 10° 15° (NNE) 1,967 5.7 -7.9°
Enters shadow 13:00:53 - 15° (NNE) 2,615 6.3 -8.0°
